Starlink 30856

operational
NORAD ID: 58725 Int'l Des: 2024-002 Owner: SPXS Country: US Constellation: starlink
LEOCIRCULAR

关于 Starlink 30856

正在加载描述...

实时位置

正在加载3D地球...

即将过境

高度历史

Altitude vs Time

uPlot chart will show altitude changes over time

两行轨道根数

1 58725U 24002W 25352.29099773 -.00079604 00000-0 -26927-2 0 9994
2 58725 53.1586 247.9576 0001127 79.5489 280.5639 15.30338095109550
Epoch: Dec 18, 2025 • Age: 11 hours

当前状态

高度 494.1 km
速度 7.62 km/s
星下点 -52.73°S, 153.65°E
发射日期 Jan 3, 2024
运行时间 1.9 years
类型 internet

技术详情

分类 Payload
质量 730.00 kg
干质量 700.00 kg
总质量 730.00 kg
长度 0.30 m
直径 4.10 m
跨度 29.00 m
形状 Box + pan
制造商 SPXS
平台类型 Starlink V2M
阶段状态 In Orbit
所有者/国家 SPXS/US

大型星座

Loading constellations...